| time (UTC) | temp F | wind direction | speed knots | gust knots | rain 1hr in | rain 24hr in | rain mn in | humidity % | barometer mb |
| 20260507105757 | 71 | 211 | 3.5 | 13.0 | 0.00 | 0.00 | 3.90 | 45 | 1011.1 |
| 20260507105257 | 71 | 259 | 0.0 | 0.0 | 0.00 | 0.00 | 3.90 | 45 | 1011.1 |
| 20260507104756 | 71 | 280 | 0.0 | 0.0 | 0.00 | 0.00 | 3.90 | 46 | 1011.2 |
| 20260507104256 | 70 | 283 | 3.5 | 13.0 | 0.00 | 0.00 | 3.90 | 47 | 1011.2 |
| 20260507103756 | 70 | 245 | 0.0 | 0.0 | 0.00 | 0.00 | 3.90 | 50 | 1011.4 |
| 20260507103256 | 69 | 267 | 0.0 | 0.0 | 0.00 | 0.00 | 3.90 | 52 | 1011.3 |
| 20260507102756 | 69 | 287 | 0.0 | 0.0 | 0.00 | 0.00 | 3.90 | 52 | 1011.4 |
| 20260507102256 | 69 | 337 | 0.0 | 6.1 | 0.00 | 0.00 | 3.90 | 49 | 1011.5 |
| 20260507101756 | 68 | 327 | 0.0 | 0.0 | 0.00 | 0.00 | 3.90 | 51 | 1011.4 |
| 20260507101256 | 68 | 226 | 0.0 | 0.0 | 0.00 | 0.00 | 3.90 | 57 | 1011.3 |
| 20260507100756 | 68 | 280 | 0.9 | 6.1 | 0.00 | 0.00 | 3.90 | 52 | 1011.3 |
| 20260507100256 | 67 | 282 | 0.0 | 6.1 | 0.00 | 0.00 | 3.90 | 50 | 1011.6 |
| 20260507095756 | 67 | 298 | 0.0 | 0.0 | 0.00 | 0.00 | 3.90 | 55 | 1011.6 |
| 20260507095256 | 67 | 243 | 0.0 | 0.0 | 0.00 | 0.00 | 3.90 | 52 | 1011.7 |
| 20260507094756 | 66 | 261 | 0.0 | 0.0 | 0.00 | 0.00 | 3.90 | 59 | 1011.6 |
| 20260507094256 | 66 | 338 | 0.0 | 0.0 | 0.00 | 0.00 | 3.90 | 57 | 1011.5 |
| 20260507093756 | 66 | 224 | 0.9 | 6.1 | 0.00 | 0.00 | 3.90 | 53 | 1011.7 |
| 20260507093256 | 65 | 217 | 0.0 | 0.0 | 0.00 | 0.00 | 3.90 | 47 | 1011.8 |
| 20260507092756 | 65 | 259 | 6.1 | 13.0 | 0.00 | 0.00 | 3.90 | 50 | 1011.8 |
| 20260507092256 | 65 | 197 | 0.0 | 0.0 | 0.00 | 0.00 | 3.90 | 57 | 1011.6 |
| 20260507091755 | 64 | 292 | 0.0 | 0.0 | 0.00 | 0.00 | 3.90 | 57 | 1011.8 |
| 20260507091255 | 64 | 322 | 0.0 | 0.0 | 0.00 | 0.00 | 3.90 | 59 | 1011.5 |
| 20260507090755 | 64 | 242 | 0.0 | 0.0 | 0.00 | 0.00 | 3.90 | 57 | 1011.7 |
| 20260507090255 | 64 | 353 | 0.0 | 0.0 | 0.00 | 0.00 | 3.90 | 61 | 1011.6 |
| 20260507085755 | 63 | 246 | 0.0 | 0.0 | 0.00 | 0.00 | 3.90 | 61 | 1011.6 |
| 20260507085255 | 63 | 338 | 0.0 | 0.0 | 0.00 | 0.00 | 3.90 | 61 | 1011.5 |
| 20260507084755 | 63 | 210 | 0.0 | 0.0 | 0.00 | 0.00 | 3.90 | 61 | 1011.6 |
| 20260507084255 | 63 | 232 | 0.0 | 6.1 | 0.00 | 0.00 | 3.90 | 62 | 1011.6 |
| 20260507083755 | 62 | 211 | 0.0 | 0.0 | 0.00 | 0.00 | 3.90 | 63 | 1011.6 |
| 20260507083255 | 62 | 259 | 0.0 | 6.1 | 0.00 | 0.00 | 3.90 | 65 | 1011.7 |
| 20260507082755 | 62 | 207 | 1.7 | 6.1 | 0.00 | 0.00 | 3.90 | 65 | 1011.9 |
| 20260507082255 | 61 | 225 | 0.0 | 0.0 | 0.00 | 0.00 | 3.90 | 66 | 1011.6 |
| 20260507081755 | 61 | 294 | 0.0 | 0.0 | 0.00 | 0.00 | 3.90 | 69 | 1011.4 |
| 20260507081255 | 60 | 328 | 0.0 | 0.0 | 0.00 | 0.00 | 3.90 | 71 | 1011.6 |
| 20260507080755 | 60 | 313 | 0.0 | 0.0 | 0.00 | 0.00 | 3.90 | 73 | 1011.4 |
| 20260507080255 | 60 | 250 | 0.0 | 6.1 | 0.00 | 0.00 | 3.90 | 72 | 1011.7 |
| 20260507075754 | 59 | 224 | 0.0 | 0.0 | 0.00 | 0.00 | 3.90 | 72 | 1011.5 |
| 20260507075254 | 59 | 244 | 0.0 | 0.0 | 0.00 | 0.00 | 3.90 | 74 | 1011.4 |
| 20260507074754 | 58 | 245 | 0.0 | 0.0 | 0.00 | 0.00 | 3.90 | 74 | 1011.6 |
| 20260507074254 | 57 | 268 | 0.0 | 0.0 | 0.00 | 0.00 | 3.90 | 76 | 1011.7 |
| 20260507073754 | 57 | 263 | 0.0 | 0.0 | 0.00 | 0.00 | 3.90 | 78 | 1011.6 |
| 20260507073254 | 56 | 254 | 0.0 | 0.0 | 0.00 | 0.00 | 3.90 | 79 | 1011.7 |
| 20260507072754 | 55 | 254 | 0.0 | 0.0 | 0.00 | 0.00 | 3.90 | 81 | 1011.5 |
| 20260507072254 | 55 | 260 | 0.0 | 0.0 | 0.00 | 0.00 | 3.90 | 87 | 1011.4 |
| 20260507071754 | 54 | 283 | 0.0 | 0.0 | 0.00 | 0.00 | 3.90 | 92 | 1011.6 |
| 20260507071254 | 54 | 265 | 0.0 | 0.0 | 0.00 | 0.00 | 3.90 | 93 | 1011.5 |
| 20260507070754 | 54 | 261 | 0.0 | 0.0 | 0.00 | 0.00 | 3.90 | 93 | 1011.5 |
| 20260507070254 | 54 | 266 | 0.0 | 0.0 | 0.00 | 0.00 | 3.90 | 94 | 1011.5 |
| 20260507065754 | 53 | 275 | 0.0 | 0.0 | 0.00 | 0.00 | 3.90 | 94 | 1011.4 |
| 20260507065254 | 53 | 261 | 0.0 | 0.0 | 0.00 | 0.00 | 3.90 | 94 | 1011.3 |
| 20260507064754 | 53 | 263 | 0.0 | 0.0 | 0.00 | 0.00 | 3.90 | 94 | 1011.6 |
| 20260507064254 | 53 | 256 | 0.0 | 0.0 | 0.00 | 0.00 | 3.90 | 94 | 1011.5 |
| 20260507063754 | 52 | 261 | 0.0 | 0.0 | 0.00 | 0.00 | 3.90 | 94 | 1011.2 |
| 20260507063253 | 52 | 261 | 0.0 | 0.0 | 0.00 | 0.00 | 3.90 | 94 | 1011.5 |
| 20260507062753 | 51 | 262 | 0.0 | 0.0 | 0.00 | 0.00 | 3.90 | 94 | 1011.2 |
| 20260507062253 | 51 | 263 | 0.0 | 0.0 | 0.00 | 0.00 | 3.90 | 94 | 1011.5 |
| 20260507061753 | 51 | 266 | 0.0 | 0.0 | 0.00 | 0.00 | 3.90 | 94 | 1011.5 |
| 20260507061253 | 50 | 267 | 0.0 | 0.0 | 0.00 | 0.00 | 3.90 | 94 | 1011.5 |
| 20260507060753 | 50 | 268 | 0.0 | 0.0 | 0.00 | 0.00 | 3.90 | 94 | 1011.4 |
| 20260507060253 | 49 | 276 | 0.0 | 0.0 | 0.00 | 0.00 | 3.90 | 94 | 1011.4 |
| 20260507055753 | 49 | 268 | 0.0 | 0.0 | 0.00 | 0.00 | 3.90 | 94 | 1011.4 |
| 20260507055253 | 49 | 268 | 0.0 | 0.0 | 0.00 | 0.00 | 3.90 | 94 | 1011.4 |
| 20260507054753 | 48 | 267 | 0.0 | 0.0 | 0.00 | 0.00 | 3.90 | 94 | 1011.4 |
| 20260507054253 | 48 | 266 | 0.0 | 0.0 | 0.00 | 0.00 | 3.90 | 94 | 1011.3 |
| 20260507053753 | 48 | 265 | 0.0 | 0.0 | 0.00 | 0.00 | 3.90 | 94 | 1011.3 |
| 20260507053253 | 48 | 269 | 0.0 | 0.0 | 0.00 | 0.00 | 3.90 | 94 | 1011.2 |
| 20260507052753 | 47 | 268 | 0.0 | 0.0 | 0.00 | 0.00 | 3.90 | 94 | 1011.2 |
| 20260507052253 | 47 | 267 | 0.0 | 0.0 | 0.00 | 0.00 | 3.90 | 94 | 1011.3 |
| 20260507051753 | 47 | 268 | 0.0 | 0.0 | 0.00 | 0.00 | 3.90 | 94 | 1011.3 |
| 20260507051253 | 47 | 269 | 0.0 | 0.0 | 0.00 | 0.00 | 3.90 | 94 | 1011.2 |
| 20260507050752 | 47 | 265 | 0.0 | 0.0 | 0.00 | 0.00 | 3.90 | 94 | 1011.1 |
| 20260507050252 | 47 | 265 | 0.0 | 0.0 | 0.00 | 0.00 | 3.90 | 94 | 1011.1 |
| 20260507045752 | 47 | 264 | 0.0 | 0.0 | 0.00 | 0.00 | 3.90 | 94 | 1011.0 |
| 20260507045252 | 47 | 268 | 0.0 | 0.0 | 0.00 | 0.00 | 3.90 | 94 | 1010.9 |
| 20260507044752 | 47 | 290 | 0.0 | 0.0 | 0.00 | 0.00 | 3.90 | 94 | 1011.1 |
| 20260507044252 | 48 | 258 | 0.0 | 0.0 | 0.00 | 0.00 | 3.90 | 93 | 1011.1 |
| 20260507043752 | 48 | 258 | 0.0 | 0.0 | 0.00 | 0.00 | 3.90 | 93 | 1011.1 |
| 20260507043252 | 48 | 258 | 0.0 | 0.0 | 0.00 | 0.00 | 3.90 | 93 | 1011.0 |
| 20260507042752 | 48 | 258 | 0.0 | 0.0 | 0.00 | 0.00 | 3.90 | 93 | 1011.2 |
| 20260507042252 | 48 | 263 | 0.0 | 0.0 | 0.00 | 0.00 | 3.90 | 93 | 1010.9 |
| 20260507041752 | 48 | 263 | 0.0 | 0.0 | 0.00 | 0.00 | 3.90 | 93 | 1010.9 |
| 20260507041252 | 48 | 260 | 0.0 | 0.0 | 0.00 | 0.00 | 3.90 | 93 | 1010.7 |
| 20260507040752 | 48 | 261 | 0.0 | 0.0 | 0.00 | 0.00 | 3.90 | 93 | 1011.0 |
| 20260507040252 | 48 | 264 | 0.0 | 0.0 | 0.00 | 0.00 | 3.90 | 93 | 1010.8 |
| 20260507035752 | 48 | 264 | 0.0 | 0.0 | 0.00 | 0.00 | 3.90 | 93 | 1010.9 |
| 20260507035252 | 49 | 267 | 0.0 | 0.0 | 0.00 | 0.00 | 3.90 | 93 | 1011.1 |
| 20260507034752 | 49 | 260 | 0.0 | 0.0 | 0.00 | 0.00 | 3.90 | 93 | 1010.7 |
| 20260507034252 | 49 | 260 | 0.0 | 0.0 | 0.00 | 0.00 | 3.90 | 93 | 1010.7 |
| 20260507033751 | 49 | 259 | 0.0 | 0.0 | 0.00 | 0.00 | 3.90 | 93 | 1010.9 |
| 20260507033251 | 49 | 254 | 0.0 | 0.0 | 0.00 | 0.00 | 3.90 | 93 | 1010.9 |
| 20260507032751 | 49 | 254 | 0.0 | 0.0 | 0.00 | 0.00 | 3.90 | 93 | 1010.8 |
| 20260507032251 | 49 | 264 | 0.0 | 0.0 | 0.00 | 0.00 | 3.90 | 93 | 1010.7 |
| 20260507031751 | 49 | 252 | 0.0 | 0.0 | 0.00 | 0.00 | 3.90 | 93 | 1010.8 |
| 20260507031251 | 49 | 262 | 0.0 | 0.0 | 0.00 | 0.00 | 3.90 | 93 | 1010.9 |
| 20260507030751 | 49 | 262 | 0.0 | 0.0 | 0.00 | 0.00 | 3.90 | 93 | 1010.8 |
| 20260507030251 | 49 | 264 | 0.0 | 0.0 | 0.00 | 0.00 | 3.90 | 93 | 1010.9 |
| 20260507025751 | 49 | 257 | 0.0 | 0.0 | 0.00 | 0.00 | 3.90 | 93 | 1010.9 |
| 20260507025251 | 49 | 264 | 0.0 | 0.0 | 0.00 | 0.00 | 3.90 | 93 | 1010.7 |
| 20260507024751 | 49 | 324 | 0.0 | 0.0 | 0.00 | 0.00 | 3.90 | 93 | 1010.8 |
| 20260507024251 | 50 | 263 | 0.0 | 0.0 | 0.00 | 0.00 | 3.90 | 93 | 1010.6 |
| 20260507023751 | 50 | 260 | 0.0 | 0.0 | 0.00 | 0.00 | 3.90 | 93 | 1010.7 |
| 20260507023251 | 50 | 259 | 0.0 | 0.0 | 0.00 | 0.00 | 3.90 | 92 | 1010.6 |
| 20260507022751 | 50 | 261 | 0.0 | 0.0 | 0.00 | 0.00 | 3.90 | 92 | 1010.7 |
| 20260507022250 | 51 | 259 | 0.0 | 0.0 | 0.00 | 0.00 | 3.90 | 92 | 1010.7 |
| 20260507021750 | 51 | 259 | 0.0 | 0.0 | 0.00 | 0.00 | 3.90 | 92 | 1010.8 |
| 20260507021250 | 51 | 259 | 0.0 | 0.0 | 0.00 | 0.00 | 3.90 | 92 | 1010.7 |
| 20260507020750 | 51 | 259 | 0.0 | 0.0 | 0.00 | 0.00 | 3.90 | 92 | 1010.9 |
| 20260507020250 | 51 | 259 | 0.0 | 0.0 | 0.00 | 0.00 | 3.90 | 92 | 1010.8 |
| 20260507015750 | 51 | 259 | 0.0 | 0.0 | 0.00 | 0.00 | 3.90 | 92 | 1010.8 |
| 20260507015250 | 51 | 259 | 0.0 | 0.0 | 0.00 | 0.00 | 3.90 | 92 | 1010.8 |
| 20260507014750 | 52 | 259 | 0.0 | 0.0 | 0.00 | 0.00 | 3.90 | 92 | 1010.7 |
| 20260507014250 | 52 | 261 | 0.0 | 0.0 | 0.00 | 0.00 | 3.90 | 92 | 1011.0 |
| 20260507013750 | 52 | 261 | 0.0 | 0.0 | 0.00 | 0.00 | 3.90 | 92 | 1011.1 |
| 20260507013250 | 52 | 258 | 0.0 | 0.0 | 0.00 | 0.00 | 3.90 | 92 | 1011.0 |
| 20260507012750 | 52 | 257 | 0.0 | 0.0 | 0.00 | 0.00 | 3.90 | 92 | 1010.9 |
| 20260507012250 | 52 | 261 | 0.0 | 0.0 | 0.00 | 0.00 | 3.90 | 92 | 1010.9 |
| 20260507011750 | 52 | 261 | 0.0 | 0.0 | 0.00 | 0.00 | 3.90 | 92 | 1010.8 |
| 20260507011250 | 52 | 261 | 0.0 | 0.0 | 0.00 | 0.00 | 3.90 | 92 | 1011.0 |
| 20260507010750 | 52 | 261 | 0.0 | 0.0 | 0.00 | 0.00 | 3.90 | 92 | 1010.9 |
| 20260507010250 | 52 | 253 | 0.0 | 0.0 | 0.00 | 0.00 | 3.90 | 92 | 1011.0 |
| 20260507005749 | 52 | 263 | 0.0 | 0.0 | 0.00 | 0.00 | 3.90 | 91 | 1010.9 |
| 20260507005249 | 52 | 263 | 0.0 | 0.0 | 0.00 | 0.00 | 3.90 | 91 | 1011.0 |
| 20260507004749 | 52 | 264 | 0.0 | 0.0 | 0.00 | 0.00 | 3.90 | 91 | 1011.3 |
| 20260507004249 | 52 | 259 | 0.0 | 0.0 | 0.00 | 0.00 | 3.90 | 91 | 1011.0 |
| 20260507003749 | 52 | 259 | 0.0 | 0.0 | 0.00 | 0.00 | 3.90 | 91 | 1010.9 |
| 20260507003249 | 52 | 259 | 0.0 | 0.0 | 0.00 | 0.00 | 3.90 | 91 | 1011.2 |
| 20260507002749 | 52 | 259 | 0.0 | 0.0 | 0.00 | 0.00 | 3.90 | 91 | 1011.3 |
| 20260507002249 | 52 | 259 | 0.0 | 0.0 | 0.00 | 0.00 | 3.90 | 90 | 1011.3 |
| 20260507001749 | 53 | 259 | 0.0 | 0.0 | 0.00 | 0.00 | 3.90 | 90 | 1011.1 |
| 20260507001249 | 53 | 259 | 0.0 | 0.0 | 0.00 | 0.00 | 3.90 | 90 | 1011.2 |
| 20260507000749 | 53 | 259 | 0.0 | 0.0 | 0.00 | 0.00 | 3.90 | 90 | 1011.1 |
| 20260507000249 | 53 | 259 | 0.0 | 0.0 | 0.00 | 0.00 | 3.90 | 90 | 1011.2 |
| 20260506235749 | 53 | 259 | 0.0 | 0.0 | 0.00 | 0.00 | 3.90 | 90 | 1011.3 |
| 20260506235249 | 54 | 259 | 0.0 | 0.0 | 0.00 | 0.00 | 3.90 | 89 | 1011.2 |
| 20260506234749 | 54 | 259 | 0.0 | 0.0 | 0.00 | 0.00 | 3.90 | 89 | 1011.2 |
| 20260506234249 | 54 | 259 | 0.0 | 0.0 | 0.00 | 0.00 | 3.90 | 90 | 1011.3 |
| 20260506233749 | 54 | 259 | 0.0 | 0.0 | 0.00 | 0.00 | 3.90 | 89 | 1011.3 |
| 20260506233248 | 54 | 263 | 0.0 | 0.0 | 0.00 | 0.00 | 3.90 | 89 | 1011.4 |
| 20260506232748 | 55 | 261 | 0.0 | 0.0 | 0.00 | 0.00 | 3.90 | 89 | 1011.3 |
| 20260506232248 | 55 | 266 | 0.0 | 0.0 | 0.00 | 0.00 | 3.90 | 89 | 1011.5 |
| 20260506231748 | 55 | 256 | 0.0 | 0.0 | 0.00 | 0.00 | 3.90 | 89 | 1011.4 |
| 20260506231248 | 55 | 248 | 0.0 | 0.0 | 0.00 | 0.00 | 3.90 | 89 | 1011.5 |
| 20260506230748 | 55 | 252 | 0.0 | 0.0 | 0.00 | 0.00 | 3.90 | 89 | 1011.5 |
| 20260506230248 | 55 | 255 | 0.0 | 0.0 | 0.00 | 0.00 | 3.90 | 89 | 1011.4 |
| 20260506225748 | 55 | 261 | 0.0 | 0.0 | 0.00 | 0.00 | 3.90 | 89 | 1011.7 |
| 20260506225248 | 55 | 257 | 0.0 | 0.0 | 0.00 | 0.00 | 3.90 | 89 | 1011.4 |
| 20260506224748 | 55 | 262 | 0.0 | 0.0 | 0.00 | 0.00 | 3.90 | 89 | 1011.6 |
| 20260506224248 | 55 | 274 | 0.0 | 0.0 | 0.00 | 0.00 | 3.90 | 89 | 1011.7 |
| 20260506223748 | 55 | 242 | 0.0 | 0.0 | 0.00 | 0.00 | 3.90 | 88 | 1011.5 |
| 20260506223248 | 55 | 263 | 0.0 | 0.0 | 0.00 | 0.00 | 3.90 | 89 | 1011.3 |
| 20260506222748 | 55 | 266 | 0.0 | 0.0 | 0.00 | 0.00 | 3.90 | 89 | 1011.6 |
| 20260506222248 | 55 | 258 | 0.0 | 0.0 | 0.00 | 0.00 | 3.90 | 88 | 1011.5 |
| 20260506221747 | 55 | 265 | 0.0 | 0.0 | 0.00 | 0.00 | 3.90 | 88 | 1011.4 |
| 20260506221247 | 55 | 248 | 0.0 | 0.0 | 0.00 | 0.00 | 3.90 | 88 | 1011.4 |
| 20260506220747 | 55 | 271 | 0.0 | 0.0 | 0.00 | 0.00 | 3.90 | 88 | 1011.6 |
| 20260506220247 | 55 | 246 | 0.0 | 0.0 | 0.00 | 0.00 | 3.90 | 87 | 1011.5 |
| 20260506215747 | 55 | 252 | 0.0 | 0.0 | 0.00 | 1.47 | 3.90 | 87 | 1011.7 |
| 20260506215247 | 55 | 256 | 0.0 | 0.0 | 0.00 | 1.47 | 3.90 | 87 | 1011.4 |
| 20260506214747 | 55 | 254 | 0.0 | 0.0 | 0.00 | 1.47 | 3.90 | 86 | 1011.5 |
| 20260506214247 | 55 | 261 | 0.0 | 0.0 | 0.00 | 1.47 | 3.90 | 86 | 1011.6 |
| 20260506213747 | 55 | 259 | 0.0 | 0.0 | 0.00 | 1.47 | 3.90 | 85 | 1011.4 |
| 20260506213247 | 55 | 249 | 0.0 | 0.0 | 0.00 | 1.47 | 3.90 | 85 | 1011.4 |
| 20260506212747 | 55 | 273 | 0.0 | 0.0 | 0.00 | 1.47 | 3.90 | 84 | 1011.3 |
| 20260506212247 | 55 | 251 | 0.0 | 0.0 | 0.00 | 1.47 | 3.90 | 84 | 1011.6 |
| 20260506211747 | 55 | 222 | 0.0 | 0.0 | 0.00 | 1.47 | 3.90 | 85 | 1011.5 |
| 20260506211247 | 55 | 255 | 0.0 | 0.0 | 0.00 | 1.47 | 3.90 | 84 | 1011.4 |
| 20260506210747 | 55 | 281 | 0.0 | 0.0 | 0.00 | 1.47 | 3.90 | 83 | 1011.5 |
| 20260506210247 | 55 | 243 | 0.0 | 0.0 | 0.00 | 1.47 | 3.90 | 83 | 1011.4 |
| 20260506205747 | 55 | 265 | 0.0 | 0.0 | 0.00 | 1.47 | 3.90 | 82 | 1011.3 |
| 20260506205246 | 55 | 333 | 0.0 | 0.0 | 0.00 | 1.47 | 3.90 | 82 | 1011.6 |
| 20260506204746 | 55 | 263 | 0.0 | 0.0 | 0.00 | 1.47 | 3.90 | 81 | 1011.2 |
| 20260506204246 | 55 | 256 | 0.0 | 0.0 | 0.00 | 1.47 | 3.90 | 81 | 1011.1 |
| 20260506203746 | 55 | 249 | 0.0 | 0.0 | 0.00 | 1.47 | 3.90 | 81 | 1011.1 |
| 20260506203246 | 55 | 279 | 0.0 | 0.0 | 0.00 | 1.47 | 3.90 | 81 | 1011.2 |
| 20260506202746 | 55 | 264 | 0.0 | 0.0 | 0.00 | 1.47 | 3.90 | 81 | 1011.1 |
| 20260506202246 | 56 | 259 | 0.0 | 0.0 | 0.00 | 1.47 | 3.90 | 81 | 1011.2 |
| 20260506201746 | 56 | 253 | 0.0 | 0.0 | 0.00 | 1.47 | 3.90 | 81 | 1010.8 |
| 20260506201246 | 56 | 272 | 0.0 | 0.0 | 0.00 | 1.47 | 3.90 | 81 | 1010.9 |
| 20260506200746 | 56 | 270 | 0.0 | 0.0 | 0.00 | 1.47 | 3.90 | 81 | 1010.7 |
| 20260506200246 | 56 | 244 | 0.0 | 0.0 | 0.00 | 1.47 | 3.90 | 81 | 1010.9 |
| 20260506195746 | 56 | 240 | 0.0 | 0.0 | 0.00 | 1.47 | 3.90 | 80 | 1010.9 |
| 20260506195246 | 56 | 275 | 0.0 | 0.0 | 0.00 | 1.47 | 3.90 | 80 | 1010.5 |
| 20260506194746 | 56 | 238 | 0.0 | 0.0 | 0.00 | 1.47 | 3.90 | 81 | 1010.7 |
| 20260506194246 | 56 | 295 | 0.0 | 0.0 | 0.00 | 1.47 | 3.90 | 81 | 1010.5 |
| 20260506193746 | 56 | 255 | 0.0 | 0.0 | 0.00 | 1.47 | 3.90 | 81 | 1010.4 |
| 20260506193245 | 56 | 246 | 0.0 | 0.0 | 0.00 | 1.47 | 3.90 | 81 | 1010.3 |
| 20260506192745 | 57 | 259 | 0.0 | 0.0 | 0.00 | 1.47 | 3.90 | 81 | 1010.4 |
| 20260506192245 | 57 | 233 | 0.0 | 0.0 | 0.00 | 1.47 | 3.90 | 81 | 1010.0 |
| 20260506191745 | 57 | 256 | 0.0 | 0.0 | 0.00 | 1.47 | 3.90 | 81 | 1009.9 |
| 20260506191245 | 57 | 230 | 0.0 | 0.0 | 0.00 | 1.47 | 3.90 | 81 | 1010.0 |
| 20260506190745 | 57 | 253 | 0.0 | 0.0 | 0.00 | 1.47 | 3.90 | 80 | 1009.7 |
| 20260506190245 | 57 | 260 | 0.0 | 0.0 | 0.00 | 1.47 | 3.90 | 79 | 1009.7 |
| 20260506185745 | 58 | 238 | 0.0 | 0.0 | 0.00 | 1.47 | 3.90 | 79 | 1009.7 |
| 20260506185245 | 58 | 279 | 0.0 | 0.0 | 0.00 | 1.47 | 3.90 | 78 | 1009.7 |
| 20260506184745 | 58 | 253 | 0.0 | 0.0 | 0.00 | 1.47 | 3.90 | 78 | 1009.5 |
| 20260506184245 | 59 | 242 | 0.0 | 0.0 | 0.00 | 1.47 | 3.90 | 77 | 1009.6 |
| 20260506183745 | 59 | 306 | 0.0 | 0.0 | 0.00 | 1.47 | 3.90 | 76 | 1009.5 |
| 20260506183245 | 59 | 247 | 0.0 | 0.0 | 0.00 | 1.47 | 3.90 | 75 | 1009.5 |
| 20260506182745 | 59 | 236 | 0.0 | 0.0 | 0.00 | 1.47 | 3.90 | 76 | 1009.5 |
| 20260506182245 | 60 | 273 | 0.0 | 0.0 | 0.00 | 1.47 | 3.90 | 74 | 1009.2 |
| 20260506181745 | 60 | 284 | 0.0 | 0.0 | 0.00 | 1.47 | 3.90 | 75 | 1009.2 |
| 20260506181245 | 60 | 286 | 0.0 | 0.0 | 0.00 | 1.47 | 3.90 | 75 | 1009.1 |
| 20260506180744 | 60 | 286 | 0.0 | 0.0 | 0.00 | 1.47 | 3.90 | 73 | 1009.0 |
| 20260506180245 | 60 | 286 | 0.0 | 0.0 | 0.00 | 1.47 | 3.90 | 73 | 1009.0 |
| 20260506175744 | 61 | 265 | 0.0 | 0.0 | 0.00 | 1.47 | 3.90 | 73 | 1009.2 |
| 20260506175244 | 61 | 235 | 0.0 | 0.0 | 0.00 | 1.47 | 3.90 | 71 | 1008.9 |
| 20260506174744 | 62 | 273 | 0.0 | 0.0 | 0.00 | 1.47 | 3.90 | 71 | 1009.0 |
| 20260506174244 | 62 | 256 | 0.0 | 0.0 | 0.00 | 1.47 | 3.90 | 70 | 1008.7 |
| 20260506173744 | 62 | 219 | 0.0 | 0.0 | 0.00 | 1.47 | 3.90 | 68 | 1008.9 |
| 20260506173244 | 63 | 265 | 4.3 | 13.0 | 0.00 | 1.47 | 3.90 | 67 | 1008.9 |
| 20260506172744 | 64 | 211 | 0.0 | 6.1 | 0.00 | 1.47 | 3.90 | 66 | 1008.8 |
| 20260506172244 | 64 | 282 | 0.0 | 0.0 | 0.00 | 1.47 | 3.90 | 65 | 1008.6 |
| 20260506171744 | 66 | 268 | 0.0 | 0.0 | 0.00 | 1.47 | 3.90 | 65 | 1008.6 |
| 20260506171244 | 67 | 223 | 0.0 | 6.1 | 0.00 | 1.47 | 3.90 | 64 | 1008.9 |
| 20260506170744 | 68 | 211 | 0.0 | 0.0 | 0.00 | 1.47 | 3.90 | 65 | 1008.6 |
| 20260506170244 | 69 | 282 | 0.0 | 0.0 | 0.00 | 1.47 | 3.90 | 63 | 1008.6 |
| 20260506165744 | 70 | 258 | 0.0 | 0.0 | 0.00 | 1.47 | 3.90 | 61 | 1008.6 |
| 20260506165243 | 71 | 282 | 0.0 | 6.1 | 0.00 | 1.47 | 3.90 | 58 | 1008.7 |
| 20260506164743 | 71 | 246 | 0.0 | 6.1 | 0.00 | 1.47 | 3.90 | 53 | 1008.7 |
| 20260506164243 | 71 | 245 | 0.0 | 0.0 | 0.00 | 1.47 | 3.90 | 51 | 1008.6 |
| 20260506163743 | 71 | 242 | 0.9 | 6.1 | 0.00 | 1.47 | 3.90 | 53 | 1008.7 |
| 20260506163243 | 71 | 23 | 7.8 | 13.0 | 0.00 | 1.47 | 3.90 | 53 | 1008.8 |
| 20260506162743 | 70 | 234 | 0.0 | 0.0 | 0.00 | 1.47 | 3.90 | 55 | 1008.4 |
| 20260506162243 | 70 | 277 | 0.0 | 6.1 | 0.00 | 1.47 | 3.90 | 53 | 1008.3 |
| 20260506161743 | 69 | 303 | 2.6 | 6.1 | 0.00 | 1.47 | 3.90 | 53 | 1008.7 |
| 20260506161243 | 68 | 270 | 0.0 | 6.1 | 0.00 | 1.47 | 3.90 | 55 | 1008.5 |
| 20260506160743 | 68 | 277 | 0.0 | 6.1 | 0.00 | 1.47 | 3.90 | 58 | 1008.6 |
| 20260506160243 | 68 | 225 | 0.0 | 0.0 | 0.00 | 1.47 | 3.90 | 57 | 1008.8 |
| 20260506155743 | 67 | 274 | 0.0 | 6.1 | 0.00 | 1.47 | 3.90 | 59 | 1008.8 |
| 20260506155243 | 67 | 282 | 1.7 | 6.1 | 0.00 | 1.47 | 3.90 | 60 | 1008.6 |
| 20260506154743 | 67 | 47 | 0.0 | 0.0 | 0.00 | 1.47 | 3.90 | 60 | 1008.6 |
| 20260506154243 | 66 | 222 | 0.0 | 0.0 | 0.00 | 1.47 | 3.90 | 59 | 1008.6 |
| 20260506153743 | 66 | 44 | 0.0 | 0.0 | 0.00 | 1.47 | 3.90 | 57 | 1008.7 |
| 20260506153242 | 67 | 221 | 0.0 | 6.1 | 0.00 | 1.47 | 3.90 | 62 | 1008.5 |
| 20260506152742 | 67 | 227 | 0.0 | 0.0 | 0.00 | 1.47 | 3.90 | 62 | 1008.6 |
| 20260506152242 | 68 | 359 | 0.0 | 0.0 | 0.00 | 1.47 | 3.90 | 63 | 1008.3 |
| 20260506151742 | 69 | 297 | 0.9 | 6.1 | 0.00 | 1.47 | 3.90 | 62 | 1008.7 |
| 20260506151242 | 71 | 278 | 0.0 | 0.0 | 0.00 | 1.47 | 3.90 | 59 | 1008.5 |
| 20260506150742 | 72 | 288 | 1.7 | 6.1 | 0.00 | 1.47 | 3.90 | 56 | 1008.6 |
| 20260506150242 | 73 | 300 | 0.0 | 6.1 | 0.00 | 1.47 | 3.90 | 55 | 1008.6 |
| 20260506145742 | 73 | 254 | 0.0 | 6.1 | 0.00 | 1.47 | 3.90 | 53 | 1008.6 |
| 20260506145242 | 74 | 19 | 0.0 | 0.0 | 0.00 | 1.47 | 3.90 | 54 | 1008.7 |
| 20260506144742 | 74 | 153 | 0.0 | 6.1 | 0.00 | 1.47 | 3.90 | 48 | 1008.8 |
| 20260506144242 | 74 | 201 | 2.6 | 6.1 | 0.00 | 1.47 | 3.90 | 51 | 1008.7 |
| 20260506143742 | 74 | 17 | 0.9 | 6.1 | 0.00 | 1.47 | 3.90 | 48 | 1008.9 |
| 20260506143242 | 73 | 56 | 0.0 | 6.1 | 0.00 | 1.47 | 3.90 | 49 | 1008.9 |
| 20260506142742 | 73 | 263 | 5.2 | 13.0 | 0.00 | 1.47 | 3.90 | 50 | 1008.9 |
| 20260506142242 | 73 | 320 | 1.7 | 6.1 | 0.00 | 1.47 | 3.90 | 49 | 1008.8 |
| 20260506141742 | 73 | 245 | 0.0 | 0.0 | 0.00 | 1.47 | 3.90 | 49 | 1008.7 |
| 20260506141242 | 73 | 291 | 1.7 | 6.1 | 0.00 | 1.47 | 3.90 | 46 | 1008.8 |
| 20260506140741 | 73 | 264 | 6.1 | 13.0 | 0.00 | 1.47 | 3.90 | 48 | 1008.7 |
| 20260506140241 | 73 | 304 | 2.6 | 6.1 | 0.00 | 1.47 | 3.90 | 46 | 1009.1 |
| 20260506135741 | 73 | 276 | 0.0 | 0.0 | 0.00 | 1.47 | 3.90 | 51 | 1008.6 |
| 20260506135241 | 73 | 200 | 0.0 | 6.1 | 0.00 | 1.47 | 3.90 | 52 | 1008.6 |
| 20260506134741 | 72 | 267 | 0.0 | 0.0 | 0.00 | 1.47 | 3.90 | 53 | 1008.7 |
| 20260506134241 | 72 | 279 | 0.0 | 0.0 | 0.00 | 1.47 | 3.90 | 52 | 1008.9 |
| 20260506133741 | 72 | 252 | 0.0 | 6.1 | 0.00 | 1.47 | 3.90 | 53 | 1008.8 |
| 20260506133241 | 72 | 270 | 0.0 | 0.0 | 0.00 | 1.47 | 3.90 | 56 | 1008.8 |
| 20260506132741 | 72 | 277 | 2.6 | 13.0 | 0.00 | 1.47 | 3.90 | 54 | 1009.0 |
| 20260506132241 | 72 | 50 | 0.0 | 6.1 | 0.00 | 1.47 | 3.90 | 53 | 1008.9 |
| 20260506131741 | 71 | 202 | 0.0 | 0.0 | 0.00 | 1.47 | 3.90 | 52 | 1009.1 |
| 20260506131241 | 71 | 262 | 0.0 | 6.1 | 0.00 | 1.47 | 3.90 | 57 | 1008.8 |
| 20260506130741 | 71 | 251 | 0.0 | 0.0 | 0.00 | 1.47 | 3.90 | 59 | 1009.0 |
| 20260506130241 | 70 | 277 | 0.9 | 6.1 | 0.00 | 1.47 | 3.90 | 58 | 1008.8 |
| 20260506125741 | 69 | 206 | 7.0 | 13.0 | 0.00 | 1.47 | 3.90 | 54 | 1009.0 |
| 20260506125241 | 69 | 270 | 0.0 | 0.0 | 0.00 | 1.47 | 3.90 | 59 | 1008.9 |
| 20260506124741 | 69 | 209 | 0.0 | 0.0 | 0.00 | 1.47 | 3.90 | 58 | 1008.8 |
| 20260506124241 | 69 | 160 | 0.0 | 6.1 | 0.00 | 1.47 | 3.90 | 58 | 1008.9 |
| 20260506123741 | 69 | 49 | 0.0 | 6.1 | 0.00 | 1.47 | 3.90 | 62 | 1008.8 |
| 20260506123241 | 69 | 4 | 2.6 | 6.1 | 0.00 | 1.47 | 3.90 | 59 | 1009.0 |
| 20260506122741 | 70 | 271 | 0.0 | 0.0 | 0.00 | 1.47 | 3.90 | 59 | 1008.8 |
| 20260506122240 | 70 | 271 | 0.0 | 0.0 | 0.00 | 1.47 | 3.90 | 59 | 1008.8 |
| 20260506121740 | 70 | 243 | 1.7 | 13.0 | 0.00 | 1.47 | 3.90 | 60 | 1009.2 |
| 20260506121240 | 70 | 261 | 0.0 | 0.0 | 0.00 | 1.47 | 3.90 | 58 | 1008.9 |
| 20260506120740 | 71 | 266 | 0.0 | 6.1 | 0.00 | 1.47 | 3.90 | 60 | 1008.9 |
| 20260506120240 | 71 | 298 | 0.9 | 6.1 | 0.00 | 1.47 | 3.90 | 58 | 1008.8 |
| 20260506115740 | 71 | 241 | 0.0 | 0.0 | 0.00 | 1.47 | 3.90 | 57 | 1009.0 |
| 20260506115240 | 71 | 267 | 0.0 | 0.0 | 0.00 | 1.47 | 3.90 | 56 | 1008.8 |
| 20260506114740 | 71 | 34 | 2.6 | 6.1 | 0.00 | 1.47 | 3.90 | 55 | 1008.8 |
| 20260506114241 | 71 | 195 | 0.0 | 0.0 | 0.00 | 1.47 | 3.90 | 52 | 1009.0 |
| 20260506113740 | 70 | 294 | 0.0 | 0.0 | 0.00 | 1.47 | 3.90 | 52 | 1008.9 |
| 20260506113240 | 70 | 250 | 0.0 | 0.0 | 0.00 | 1.47 | 3.90 | 52 | 1008.8 |
| 20260506112740 | 69 | 16 | 0.9 | 6.1 | 0.00 | 1.47 | 3.90 | 54 | 1009.1 |
| 20260506112240 | 69 | 236 | 0.0 | 0.0 | 0.00 | 1.47 | 3.90 | 52 | 1009.3 |
| 20260506111740 | 68 | 231 | 0.0 | 6.1 | 0.00 | 1.47 | 3.90 | 52 | 1009.2 |
| 20260506111240 | 68 | 237 | 0.0 | 0.0 | 0.00 | 1.47 | 3.90 | 56 | 1009.2 |
| 20260506110739 | 67 | 276 | 1.7 | 6.1 | 0.00 | 1.47 | 3.90 | 55 | 1009.3 |
| 20260506110239 | 67 | 193 | 0.0 | 0.0 | 0.00 | 1.47 | 3.90 | 56 | 1009.5 |